Home > Weather > Westerland > Past weeks

Flag for Germany Past Weather in Westerland, Schleswig-Holstein, Germany — Yesterday and Last 2 Weeks

Now
57 °F

Fog.


Feels Like: 57 °F
Forecast: 56 / 61 °F
Wind: 3 mph from Southeast

Location: Westerland / Sylt

Current Time: May 25, 2016 at 11:26:56 AM

Latest Report: May 25, 2016 at 10:50 AM


Visibility: 0 mi

Pressure: 29.95 "Hg

Humidity: 100%

Dew Point: 57 °F

Location of WesterlandLocation

Past Weather in Westerland — Graph

°F

Westerland Temperature Yesterday

Maximum temperature yesterday: 55 °F (at 2:50 PM)
Minimum temperature yesterday: 50 °F (at 9:20 AM)
Average temperature yesterday: 53 °F

High & Low Weather Summary for the Past Weeks

 TemperatureHumidityPressure
High75 °F (May 11, 2:20 PM)100% (May 20, 7:20 PM)30.04 "Hg (May 20, 7:20 PM)
Low46 °F (May 13, 10:50 PM)38% (May 10, 3:50 PM)29.68 "Hg (May 13, 9:50 AM)
Average57 °F75%29.84 "Hg
* Reported May 10 10:20 AM — May 25 10:00 AM, Westerland, Weather by CustomWeather, © 2016

Note: Actual official high and low records may vary slightly from our data, if they occured in-between our weather recording intervals... More about our weather records

Advertising

Westerland Weather History for the Previous 24 Hours

Scroll right to see more
 ConditionsComfort  
Time TempWeatherWind HumidityBarometerVisibility
10:00 AM
Wed, May 25
59 °FFog.5 mph100%29.92 "Hg1 mi
6:50 PM
Tue, May 24
55 °FScattered clouds.10 mph94%29.89 "Hg4 mi
6:20 PM55 °FScattered clouds.10 mph100%29.89 "Hg5 mi
5:50 PM55 °FClear.9 mph100%29.89 "Hg4 mi
5:20 PM55 °FClear.9 mph94%29.89 "Hg4 mi
4:50 PM55 °FPartly sunny.8 mph94%29.89 "Hg5 mi
4:20 PM54 °FBroken clouds.12 mph100%29.89 "Hg4 mi
3:50 PM54 °FScattered clouds.13 mph100%29.89 "Hg4 mi
3:20 PM55 °FScattered clouds.13 mph94%29.89 "Hg5 mi
2:50 PM55 °FScattered clouds.13 mph94%29.92 "Hg6 mi
2:20 PM54 °FScattered clouds.12 mph100%29.92 "Hg5 mi
1:50 PM54 °FDrizzle. Broken clouds.10 mph94%29.92 "Hg5 mi
1:20 PM54 °FDrizzle. Partly sunny.10 mph94%29.92 "Hg5 mi
12:50 PM52 °FDrizzle. Partly sunny.15 mph94%29.92 "Hg6 mi
12:20 PM52 °FDrizzle. Partly sunny.10 mph94%29.92 "Hg6 mi
11:50 AM52 °FBroken clouds.12 mph94%29.92 "HgN/A
11:20 AM52 °FDrizzle. Partly sunny.7 mph94%29.92 "HgN/A
Weather by CustomWeather, © 2016

See weather overviewHow to use our weather pages